カタログに戻る

COSMOS 2576

運用中ナビゲーションSSO
NORAD 59773·PAYLOAD·🇷🇺 Russia

打ち上げ May 16, 2024 から Plesetsk Cosmodrome

Loading…

次のパス (今後24時間)

TLE

最新Source: Space-Track

元期: Sep 14, 2026, 18:05 UTC

1 59773U 24092A   26257.75355705  .00005744  00000-0  26206-3 0  9996
2 59773  97.4464  12.5600 0013533  63.5003 296.7619 15.20931753129999

AllMySatでCOSMOS 2576をリアルタイム追跡

Download on the App Store